ETH519 KATL-HAAB

Flight info

Callsign ETH519
Flight time N/A
Altitude 35000
Route PHIIL3 HRTWL Q64 TYI DCT ORF AR9 ZIBUT/M085F350 DCT TILED DCT SOORY DCT 4130N05000W 4330N04000W 4330N03000W/M085F370 42N020W DCT DETOX/N0489F370 DCT RIVRO DCT BARDI/N0478F380 M191 DIPOL M871 NVS/N0477F370 DCT NANDO DCT FENXE DCT MABUX DCT RETBA DCT MOPIR DCT LASPO DCT LUXUR UM134 ANB/N0475F390 UA411 MORJA DCT SONAK DCT DOBIX DCT ARLOS DCT SALUN N705 BOPIX N710 TAKRI P751 TOMRU DCT KSL/N0480F400 DCT ALRAP/N0481F410 UT124 AMUDO AMUDO1A
Aircraft B789/H-SDE1E2E3FGHIJ2J3J4J5M1RWXY/LB1D1

Departure

Time 2026-05-01 10:09
Airport Hartsfield Jackson Atlanta International Airport (KATL)

Arrival

Time N/A
Airport Addis Ababa Bole International Airport (HAAB)
Time Latitude Longitude Altitude Speed Heading
2026-05-01 10:02 33.63919 -84.44117 1012 ft 0 kts 180°
2026-05-01 10:03 33.63897 -84.44115 1012 ft 2 kts 173°
2026-05-01 10:04 33.63892 -84.44114 1012 ft 0 kts 171°
2026-05-01 10:04 33.63837 -84.44116 1012 ft 13 kts 181°
2026-05-01 10:04 33.63756 -84.44116 1013 ft 10 kts 179°
2026-05-01 10:04 33.63701 -84.44113 1014 ft 4 kts 169°
2026-05-01 10:05 33.63678 -84.44094 1014 ft 9 kts 146°
2026-05-01 10:05 33.63597 -84.44022 1018 ft 14 kts 121°
2026-05-01 10:05 33.63584 -84.43927 1019 ft 10 kts 92°
2026-05-01 10:05 33.63582 -84.43859 1019 ft 6 kts 92°
2026-05-01 10:06 33.63582 -84.43812 1019 ft 6 kts 88°
2026-05-01 10:06 33.63584 -84.43751 1018 ft 9 kts 87°
2026-05-01 10:06 33.63583 -84.43613 1018 ft 25 kts 91°
2026-05-01 10:06 33.63582 -84.43398 1017 ft 26 kts 90°
2026-05-01 10:07 33.63584 -84.43371 1021 ft 0 kts 81°
2026-05-01 10:07 33.63584 -84.43374 1020 ft 0 kts 78°
2026-05-01 10:07 33.63472 -84.40852 1041 ft 0 kts 270°
2026-05-01 10:08 33.63473 -84.41026 1040 ft 49 kts 271°
2026-05-01 10:08 33.63472 -84.41984 1041 ft 123 kts 271°
2026-05-01 10:08 33.63473 -84.43213 1040 ft 170 kts 270°
2026-05-01 10:09 33.63480 -84.44788 1202 ft 198 kts 268°
2026-05-01 10:09 33.63439 -84.46264 2166 ft 188 kts 270°
2026-05-01 10:09 33.63218 -84.47812 2723 ft 196 kts 248°
2026-05-01 10:09 33.62546 -84.49375 2910 ft 225 kts 242°
2026-05-01 10:10 33.61777 -84.51127 3192 ft 248 kts 244°
2026-05-01 10:10 33.61029 -84.52980 4081 ft 242 kts 245°
2026-05-01 10:10 33.59769 -84.56098 5412 ft 250 kts 242°
2026-05-01 10:11 33.58611 -84.57606 6317 ft 256 kts 216°
2026-05-01 10:11 33.56945 -84.58407 7120 ft 264 kts 190°
2026-05-01 10:11 33.55086 -84.58501 7924 ft 270 kts 185°
2026-05-01 10:11 33.53193 -84.58478 8745 ft 273 kts 184°
2026-05-01 10:12 33.51286 -84.58448 9558 ft 276 kts 185°
2026-05-01 10:12 33.49353 -84.58300 10247 ft 289 kts 170°
2026-05-01 10:12 33.46127 -84.55101 11286 ft 331 kts 116°
2026-05-01 10:13 33.45626 -84.52320 11502 ft 357 kts 92°
2026-05-01 10:13 33.45598 -84.49255 11681 ft 381 kts 89°
2026-05-01 10:13 33.45668 -84.45994 12008 ft 399 kts 89°
2026-05-01 10:14 33.45615 -84.39281 13538 ft 408 kts 92°
2026-05-01 10:14 33.45579 -84.35861 14189 ft 415 kts 90°
2026-05-01 10:14 33.45894 -84.32404 14721 ft 422 kts 73°
2026-05-01 10:14 33.46735 -84.29008 15324 ft 429 kts 71°
2026-05-01 10:15 33.47622 -84.25574 15892 ft 436 kts 70°
2026-05-01 10:15 33.48528 -84.22077 16494 ft 442 kts 70°
2026-05-01 10:15 33.49421 -84.18521 17079 ft 449 kts 70°
2026-05-01 10:15 33.50330 -84.14912 17669 ft 455 kts 70°
2026-05-01 10:16 33.51253 -84.11250 18228 ft 462 kts 70°
2026-05-01 10:16 33.52190 -84.07539 18738 ft 468 kts 70°
2026-05-01 10:16 33.54088 -83.99996 19828 ft 477 kts 70°
2026-05-01 10:17 33.55048 -83.96170 20352 ft 482 kts 70°
2026-05-01 10:17 33.56994 -83.88406 21392 ft 491 kts 71°
2026-05-01 10:17 33.57983 -83.84453 21898 ft 496 kts 71°
2026-05-01 10:18 33.60679 -83.76820 22843 ft 502 kts 62°
2026-05-01 10:18 33.62103 -83.73039 23307 ft 506 kts 63°
2026-05-01 10:18 33.63557 -83.69178 23751 ft 510 kts 62°
2026-05-01 10:19 33.65030 -83.65287 24145 ft 514 kts 64°
2026-05-01 10:19 33.66119 -83.61177 24546 ft 520 kts 76°
2026-05-01 10:19 33.66924 -83.56927 24914 ft 524 kts 76°
2026-05-01 10:20 33.68513 -83.48325 25681 ft 531 kts 76°
2026-05-01 10:20 33.69329 -83.43988 26071 ft 534 kts 75°
2026-05-01 10:20 33.70150 -83.39621 26436 ft 538 kts 75°
2026-05-01 10:20 33.70963 -83.35226 26815 ft 541 kts 75°
2026-05-01 10:21 33.71780 -83.30803 27165 ft 545 kts 75°
2026-05-01 10:21 33.73436 -83.21870 27877 ft 551 kts 75°
2026-05-01 10:21 33.74292 -83.17373 28225 ft 553 kts 71°
2026-05-01 10:22 33.77524 -83.09119 28877 ft 546 kts 52°
2026-05-01 10:22 33.81555 -83.01341 29542 ft 551 kts 51°
2026-05-01 10:23 33.83586 -82.97423 29882 ft 554 kts 52°
2026-05-01 10:23 33.87654 -82.89506 30441 ft 559 kts 51°
2026-05-01 10:23 33.89709 -82.85521 30711 ft 561 kts 51°
2026-05-01 10:24 33.93829 -82.77513 31226 ft 566 kts 51°
2026-05-01 10:24 33.97976 -82.69420 31745 ft 570 kts 51°
2026-05-01 10:25 34.02138 -82.61230 32230 ft 575 kts 51°
2026-05-01 10:25 34.06291 -82.52982 32823 ft 575 kts 51°
2026-05-01 10:26 34.08379 -82.48860 33130 ft 575 kts 50°
2026-05-01 10:26 34.10457 -82.44739 33464 ft 575 kts 50°
2026-05-01 10:26 34.14605 -82.36478 34069 ft 575 kts 50°
2026-05-01 10:27 34.18748 -82.28229 34669 ft 573 kts 50°
2026-05-01 10:27 34.22876 -82.19985 35004 ft 577 kts 50°
2026-05-01 10:28 34.24947 -82.15844 34986 ft 576 kts 50°
2026-05-01 10:28 34.31149 -82.03535 34988 ft 569 kts 49°
2026-05-01 10:29 34.37311 -81.91236 35007 ft 570 kts 50°
2026-05-01 10:30 34.45499 -81.74863 35014 ft 570 kts 50°
2026-05-01 10:31 34.53723 -81.58339 35027 ft 570 kts 50°
2026-05-01 10:32 34.56277 -81.53190 35023 ft 570 kts 50°
2026-05-01 10:33 34.64436 -81.36693 35030 ft 570 kts 50°
2026-05-01 10:34 34.70530 -81.24321 35045 ft 568 kts 51°
2026-05-01 10:34 34.74571 -81.16091 35044 ft 566 kts 51°
2026-05-01 10:35 34.80437 -81.03634 35063 ft 571 kts 60°
2026-05-01 10:35 34.83698 -80.94821 35032 ft 571 kts 58°
2026-05-01 10:36 34.88570 -80.81576 35039 ft 572 kts 59°
2026-05-01 10:37 34.91825 -80.72732 35039 ft 572 kts 59°
2026-05-01 10:37 34.96684 -80.59441 35038 ft 573 kts 59°
2026-05-01 10:38 34.99926 -80.50554 35036 ft 574 kts 59°
2026-05-01 10:38 35.03162 -80.41651 35037 ft 575 kts 60°
2026-05-01 10:39 35.06399 -80.32724 35040 ft 575 kts 60°
2026-05-01 10:39 35.09630 -80.23788 35047 ft 575 kts 60°
2026-05-01 10:40 35.12855 -80.14841 35052 ft 576 kts 60°
2026-05-01 10:40 35.16079 -80.05875 35052 ft 576 kts 61°
2026-05-01 10:41 35.19271 -79.96970 35049 ft 576 kts 61°
2026-05-01 10:42 35.24094 -79.83509 35043 ft 576 kts 62°
2026-05-01 10:42 35.27303 -79.74510 35047 ft 577 kts 62°
2026-05-01 10:43 35.30504 -79.65513 35053 ft 577 kts 62°
2026-05-01 10:43 35.33703 -79.56495 35059 ft 577 kts 62°
2026-05-01 10:44 35.36887 -79.47494 35067 ft 576 kts 62°
2026-05-01 10:44 35.40071 -79.38465 35064 ft 576 kts 62°
2026-05-01 10:45 35.43242 -79.29448 35067 ft 576 kts 62°
2026-05-01 10:45 35.46409 -79.20418 35073 ft 576 kts 62°
2026-05-01 10:46 35.49565 -79.11388 35079 ft 576 kts 63°
2026-05-01 10:46 35.52715 -79.02353 35079 ft 576 kts 63°
2026-05-01 10:47 35.55860 -78.93307 35075 ft 576 kts 63°
2026-05-01 10:47 35.58998 -78.84250 35066 ft 576 kts 63°
2026-05-01 10:48 35.62109 -78.75247 35054 ft 576 kts 63°
2026-05-01 10:48 35.65034 -78.66748 35058 ft 576 kts 63°
2026-05-01 10:49 35.68150 -78.57670 35067 ft 576 kts 63°
2026-05-01 10:49 35.71254 -78.48603 35070 ft 575 kts 63°
2026-05-01 10:50 35.74352 -78.39525 35065 ft 575 kts 63°
2026-05-01 10:50 35.77446 -78.30445 35066 ft 575 kts 63°
2026-05-01 10:51 35.80531 -78.21357 35079 ft 575 kts 63°
2026-05-01 10:51 35.83613 -78.12258 35071 ft 575 kts 63°
2026-05-01 10:52 35.86687 -78.03151 35074 ft 576 kts 63°
2026-05-01 10:52 35.89758 -77.94027 35072 ft 576 kts 63°
2026-05-01 10:53 35.92818 -77.84904 35075 ft 576 kts 63°
2026-05-01 10:53 35.95814 -77.75951 35072 ft 576 kts 63°
2026-05-01 10:54 35.99558 -77.67352 35075 ft 561 kts 44°
2026-05-01 10:54 36.04315 -77.59681 35073 ft 563 kts 46°
2026-05-01 10:55 36.09077 -77.52003 35069 ft 563 kts 46°
2026-05-01 10:55 36.13839 -77.44298 35064 ft 564 kts 47°
2026-05-01 10:56 36.18568 -77.36630 35070 ft 565 kts 47°
2026-05-01 10:56 36.23332 -77.28891 35078 ft 566 kts 47°
2026-05-01 10:57 36.28097 -77.21131 35085 ft 566 kts 47°
2026-05-01 10:57 36.32862 -77.13354 35082 ft 566 kts 47°
2026-05-01 10:58 36.37621 -77.05568 35083 ft 567 kts 47°
2026-05-01 10:58 36.42386 -76.97756 35077 ft 568 kts 47°
2026-05-01 10:59 36.47155 -76.89917 35074 ft 569 kts 47°
2026-05-01 10:59 36.50726 -76.84036 35074 ft 569 kts 47°
2026-05-01 11:00 36.55492 -76.76172 35079 ft 570 kts 47°
2026-05-01 11:00 36.60264 -76.68280 35089 ft 571 kts 47°
2026-05-01 11:01 36.65032 -76.60375 35091 ft 571 kts 48°
2026-05-01 11:01 36.69802 -76.52448 35093 ft 571 kts 47°
2026-05-01 11:02 36.74555 -76.44532 35083 ft 571 kts 48°
2026-05-01 11:02 36.79307 -76.36598 35076 ft 571 kts 48°
2026-05-01 11:03 36.84059 -76.28646 35059 ft 571 kts 48°
2026-05-01 11:03 36.87982 -76.19972 35080 ft 583 kts 69°
2026-05-01 11:03 36.89049 -76.15077 35085 ft 585 kts 81°
2026-05-01 11:04 36.89454 -76.10025 35091 ft 584 kts 89°
2026-05-01 11:04 36.89748 -75.99927 35058 ft 586 kts 89°
2026-05-01 11:05 36.89972 -75.90306 35046 ft 587 kts 89°
2026-05-01 11:05 36.90247 -75.80117 35049 ft 588 kts 89°
2026-05-01 11:06 36.90485 -75.69884 35050 ft 589 kts 89°
2026-05-01 11:06 36.90738 -75.59648 35046 ft 590 kts 89°
2026-05-01 11:07 36.91069 -75.44263 35053 ft 591 kts 89°
2026-05-01 11:07 36.91360 -75.33997 35059 ft 591 kts 86°
2026-05-01 11:08 36.91676 -75.23722 35045 ft 592 kts 88°
2026-05-01 11:09 36.92013 -75.08308 35051 ft 592 kts 89°
2026-05-01 11:09 36.92129 -74.98020 35046 ft 592 kts 89°
2026-05-01 11:10 36.92374 -74.82589 35043 ft 593 kts 89°
2026-05-01 11:10 36.92490 -74.72360 35037 ft 593 kts 89°
2026-05-01 11:11 36.92629 -74.62048 35034 ft 594 kts 89°
2026-05-01 11:11 36.92739 -74.51729 35034 ft 594 kts 89°
2026-05-01 11:12 36.92854 -74.41407 35039 ft 595 kts 89°
2026-05-01 11:12 36.93019 -74.31062 35033 ft 595 kts 88°
2026-05-01 11:13 36.93161 -74.20709 35034 ft 596 kts 89°
2026-05-01 11:13 36.93297 -74.10364 35031 ft 596 kts 88°
2026-05-01 11:14 36.93426 -74.00010 35027 ft 596 kts 89°
2026-05-01 11:14 36.93542 -73.89649 35033 ft 596 kts 88°
2026-05-01 11:15 36.93654 -73.79281 35030 ft 597 kts 89°
2026-05-01 11:15 36.93748 -73.68905 35030 ft 597 kts 89°
2026-05-01 11:16 36.93736 -73.58521 35029 ft 598 kts 89°
2026-05-01 11:16 36.93757 -73.48134 35026 ft 598 kts 89°
2026-05-01 11:17 36.93792 -73.37741 35018 ft 598 kts 89°
2026-05-01 11:17 36.93812 -73.27353 35017 ft 598 kts 89°
2026-05-01 11:18 36.93839 -73.16962 35017 ft 598 kts 89°
2026-05-01 11:18 36.93849 -73.06577 35018 ft 598 kts 89°
2026-05-01 11:19 36.93855 -72.96262 35012 ft 597 kts 89°
2026-05-01 11:19 36.93861 -72.85877 35008 ft 597 kts 89°
2026-05-01 11:20 36.93854 -72.75496 35006 ft 597 kts 89°
2026-05-01 11:20 36.93997 -72.65140 35013 ft 594 kts 79°
2026-05-01 11:21 36.95063 -72.54885 35008 ft 595 kts 79°
2026-05-01 11:21 36.96124 -72.44633 35001 ft 595 kts 80°
2026-05-01 11:22 36.97172 -72.34369 34997 ft 595 kts 80°
2026-05-01 11:22 36.98215 -72.24101 34994 ft 595 kts 80°
2026-05-01 11:23 36.99245 -72.13841 34992 ft 594 kts 80°
2026-05-01 11:23 37.00268 -72.03580 34994 ft 594 kts 80°
2026-05-01 11:24 37.01279 -71.93337 34989 ft 593 kts 80°
2026-05-01 11:25 37.02780 -71.77969 34989 ft 592 kts 80°
2026-05-01 11:25 37.04258 -71.62632 34981 ft 591 kts 80°
2026-05-01 11:26 37.05716 -71.47290 34975 ft 592 kts 80°
2026-05-01 11:27 37.06674 -71.37078 34974 ft 590 kts 80°
2026-05-01 11:27 37.07624 -71.26879 34971 ft 590 kts 80°
2026-05-01 11:28 37.08563 -71.16670 34967 ft 590 kts 80°
2026-05-01 11:28 37.09495 -71.06466 34966 ft 590 kts 80°
2026-05-01 11:29 37.10878 -70.91127 34967 ft 591 kts 81°
2026-05-01 11:30 37.12241 -70.75788 34977 ft 590 kts 81°
2026-05-01 11:30 37.13137 -70.65570 34968 ft 590 kts 81°
2026-05-01 11:31 37.14019 -70.55419 34967 ft 590 kts 81°
2026-05-01 11:31 37.14897 -70.45207 34969 ft 590 kts 81°
2026-05-01 11:32 37.15767 -70.34988 34966 ft 589 kts 81°
2026-05-01 11:32 37.16627 -70.24778 34968 ft 589 kts 81°
2026-05-01 11:33 37.17479 -70.14559 34965 ft 589 kts 82°
2026-05-01 11:33 37.18322 -70.04341 34962 ft 589 kts 82°
2026-05-01 11:34 37.19155 -69.94132 34968 ft 589 kts 82°
2026-05-01 11:34 37.19980 -69.83905 34965 ft 589 kts 82°
2026-05-01 11:35 37.20797 -69.73677 34967 ft 590 kts 82°
2026-05-01 11:35 37.21606 -69.63437 34962 ft 589 kts 82°
2026-05-01 11:36 37.22405 -69.53206 34955 ft 590 kts 82°
2026-05-01 11:36 37.23195 -69.42968 34958 ft 589 kts 82°
2026-05-01 11:37 37.23978 -69.32723 34952 ft 589 kts 83°
2026-05-01 11:37 37.24751 -69.22481 34951 ft 589 kts 83°
2026-05-01 11:38 37.25514 -69.12241 34949 ft 590 kts 83°
2026-05-01 11:38 37.26270 -69.01986 34949 ft 590 kts 83°
2026-05-01 11:39 37.27595 -68.91882 34935 ft 587 kts 74°
2026-05-01 11:39 37.29401 -68.81889 34937 ft 587 kts 74°
2026-05-01 11:40 37.31178 -68.71974 34933 ft 586 kts 74°
2026-05-01 11:40 37.32960 -68.62001 34932 ft 585 kts 74°
2026-05-01 11:41 37.34732 -68.52023 34931 ft 585 kts 75°
2026-05-01 11:41 37.36499 -68.42023 34927 ft 586 kts 75°
2026-05-01 11:42 37.38256 -68.32028 34926 ft 586 kts 75°
2026-05-01 11:42 37.40004 -68.22031 34921 ft 585 kts 75°
2026-05-01 11:43 37.41742 -68.12035 34914 ft 584 kts 75°
2026-05-01 11:43 37.43470 -68.02049 34906 ft 583 kts 75°
2026-05-01 11:44 37.46039 -67.87100 34895 ft 582 kts 75°
2026-05-01 11:44 37.47739 -67.77138 34891 ft 582 kts 76°
2026-05-01 11:45 37.49430 -67.67181 34892 ft 581 kts 76°
2026-05-01 11:45 37.51109 -67.57236 34891 ft 580 kts 76°
2026-05-01 11:46 37.52780 -67.47290 34885 ft 580 kts 76°
2026-05-01 11:46 37.54438 -67.37361 34883 ft 579 kts 76°
2026-05-01 11:47 37.56087 -67.27439 34875 ft 578 kts 76°
2026-05-01 11:47 37.57451 -67.19187 34876 ft 578 kts 76°
2026-05-01 11:48 37.59082 -67.09269 34873 ft 578 kts 76°
2026-05-01 11:48 37.60705 -66.99348 34871 ft 577 kts 77°
2026-05-01 11:49 37.62316 -66.89441 34867 ft 576 kts 77°
2026-05-01 11:49 37.63918 -66.79539 34860 ft 575 kts 77°
2026-05-01 11:50 37.65509 -66.69647 34854 ft 575 kts 77°
2026-05-01 11:50 37.67087 -66.59781 34847 ft 573 kts 77°
2026-05-01 11:51 37.68654 -66.49926 34849 ft 572 kts 77°
2026-05-01 11:51 37.70210 -66.40088 34850 ft 571 kts 78°
2026-05-01 11:52 37.71753 -66.30276 34845 ft 569 kts 78°
2026-05-01 11:52 37.73285 -66.20473 34843 ft 568 kts 78°
2026-05-01 11:53 37.74809 -66.10676 34843 ft 568 kts 78°
2026-05-01 11:53 37.76321 -66.00892 34842 ft 567 kts 78°
2026-05-01 11:54 37.77815 -65.91172 34844 ft 566 kts 78°
2026-05-01 11:54 37.79306 -65.81414 34840 ft 565 kts 78°
2026-05-01 11:55 37.80788 -65.71660 34838 ft 564 kts 78°
2026-05-01 11:55 37.82259 -65.61919 34846 ft 563 kts 79°
2026-05-01 11:56 37.83720 -65.52183 34843 ft 563 kts 79°
2026-05-01 11:56 37.85171 -65.42465 34845 ft 562 kts 79°
2026-05-01 11:57 37.86613 -65.32749 34843 ft 561 kts 79°
2026-05-01 11:57 37.88045 -65.23041 34841 ft 561 kts 79°
2026-05-01 11:58 37.89465 -65.13355 34839 ft 559 kts 79°
2026-05-01 11:59 37.91576 -64.98850 34844 ft 558 kts 79°
2026-05-01 11:59 37.92969 -64.89207 34848 ft 556 kts 80°
2026-05-01 12:00 37.95038 -64.74776 34848 ft 554 kts 80°
2026-05-01 12:01 37.96989 -64.61041 34846 ft 552 kts 81°
2026-05-01 12:01 37.98296 -64.51778 34848 ft 550 kts 81°
2026-05-01 12:02 37.99635 -64.42228 34851 ft 550 kts 81°
2026-05-01 12:02 38.00919 -64.33009 34849 ft 549 kts 81°
2026-05-01 12:03 38.02241 -64.23465 34852 ft 550 kts 81°
2026-05-01 12:03 38.03555 -64.13924 34847 ft 549 kts 81°
2026-05-01 12:04 38.04862 -64.04411 34859 ft 547 kts 81°
2026-05-01 12:04 38.06147 -63.94897 34858 ft 546 kts 82°
2026-05-01 12:05 38.07431 -63.85417 34856 ft 544 kts 82°
2026-05-01 12:05 38.09326 -63.71261 34862 ft 542 kts 82°
2026-05-01 12:06 38.10582 -63.61833 34865 ft 541 kts 82°
2026-05-01 12:06 38.11825 -63.52415 34858 ft 541 kts 82°
2026-05-01 12:07 38.13061 -63.43011 34857 ft 539 kts 82°
2026-05-01 12:07 38.14284 -63.33628 34856 ft 538 kts 82°
2026-05-01 12:08 38.15498 -63.24268 34847 ft 536 kts 82°
2026-05-01 12:08 38.16701 -63.14926 34857 ft 535 kts 82°
2026-05-01 12:09 38.17893 -63.05610 34856 ft 534 kts 82°
2026-05-01 12:09 38.19076 -62.96299 34849 ft 533 kts 82°
2026-05-01 12:10 38.20834 -62.82359 34844 ft 532 kts 83°
2026-05-01 12:11 38.22565 -62.68489 34839 ft 531 kts 83°
2026-05-01 12:11 38.23714 -62.59210 34834 ft 531 kts 83°
2026-05-01 12:12 38.24854 -62.49939 34839 ft 531 kts 83°
2026-05-01 12:12 38.25995 -62.40598 34837 ft 530 kts 83°
2026-05-01 12:13 38.27118 -62.31343 34835 ft 529 kts 83°
2026-05-01 12:13 38.28233 -62.22087 34832 ft 529 kts 83°
2026-05-01 12:14 38.29333 -62.12899 34837 ft 530 kts 83°
2026-05-01 12:14 38.30435 -62.03636 34833 ft 528 kts 83°
2026-05-01 12:15 38.31524 -61.94395 34835 ft 527 kts 83°
2026-05-01 12:15 38.32607 -61.85162 34833 ft 528 kts 83°
2026-05-01 12:16 38.33684 -61.75910 34834 ft 528 kts 84°
2026-05-01 12:16 38.34755 -61.66646 34834 ft 529 kts 84°
2026-05-01 12:17 38.35819 -61.57374 34837 ft 529 kts 84°
2026-05-01 12:17 38.36876 -61.48095 34840 ft 529 kts 84°
2026-05-01 12:18 38.37927 -61.38806 34841 ft 530 kts 84°
2026-05-01 12:18 38.38971 -61.29513 34847 ft 530 kts 84°
2026-05-01 12:19 38.40008 -61.20207 34854 ft 530 kts 84°
2026-05-01 12:19 38.41037 -61.10905 34854 ft 530 kts 84°
2026-05-01 12:20 38.42060 -61.01595 34856 ft 530 kts 84°
2026-05-01 12:20 38.43004 -60.92936 34859 ft 530 kts 84°
2026-05-01 12:21 38.44006 -60.83678 34864 ft 531 kts 84°
2026-05-01 12:21 38.45008 -60.74347 34867 ft 531 kts 84°
2026-05-01 12:22 38.46011 -60.64943 34869 ft 532 kts 84°
2026-05-01 12:22 38.46994 -60.55647 34875 ft 533 kts 84°
2026-05-01 12:23 38.47984 -60.46212 34878 ft 534 kts 84°
2026-05-01 12:23 38.48957 -60.36872 34882 ft 535 kts 84°
2026-05-01 12:24 38.50044 -60.27606 34897 ft 537 kts 75°
2026-05-01 12:24 38.52779 -60.18817 34901 ft 540 kts 66°
2026-05-01 12:25 38.57371 -60.05671 34905 ft 541 kts 66°
2026-05-01 12:26 38.60420 -59.96885 34906 ft 541 kts 66°
2026-05-01 12:26 38.64994 -59.83682 34916 ft 542 kts 66°
2026-05-01 12:27 38.69556 -59.70445 34919 ft 542 kts 66°
2026-05-01 12:28 38.74105 -59.57185 34923 ft 542 kts 66°
2026-05-01 12:29 38.78640 -59.43909 34927 ft 543 kts 66°
2026-05-01 12:29 38.83164 -59.30603 34929 ft 542 kts 66°
2026-05-01 12:30 38.87668 -59.17293 34935 ft 542 kts 66°
2026-05-01 12:31 38.90640 -59.08477 34935 ft 542 kts 66°
2026-05-01 12:31 38.93623 -58.99601 34938 ft 541 kts 66°
2026-05-01 12:32 38.96600 -58.90714 34941 ft 541 kts 66°
2026-05-01 12:32 39.01051 -58.77379 34943 ft 541 kts 66°
2026-05-01 12:33 39.04009 -58.68482 34946 ft 541 kts 66°
2026-05-01 12:33 39.06955 -58.59591 34953 ft 540 kts 66°
2026-05-01 12:34 39.09895 -58.50693 34959 ft 540 kts 66°
2026-05-01 12:34 39.12828 -58.41785 34959 ft 540 kts 66°
2026-05-01 12:35 39.15755 -58.32872 34962 ft 540 kts 66°
2026-05-01 12:35 39.18667 -58.23974 34966 ft 539 kts 66°
2026-05-01 12:36 39.21082 -58.16572 34968 ft 539 kts 66°
2026-05-01 12:36 39.23980 -58.07667 34973 ft 538 kts 66°
2026-05-01 12:37 39.26865 -57.98770 34976 ft 537 kts 66°
2026-05-01 12:37 39.29739 -57.89883 34976 ft 536 kts 66°
2026-05-01 12:38 39.32597 -57.81015 34981 ft 535 kts 66°
2026-05-01 12:38 39.35446 -57.72148 34984 ft 534 kts 66°
2026-05-01 12:39 39.38279 -57.63300 34988 ft 532 kts 66°
2026-05-01 12:39 39.41096 -57.54479 34990 ft 531 kts 66°
2026-05-01 12:40 39.43905 -57.45652 34995 ft 530 kts 66°
2026-05-01 12:40 39.46698 -57.36846 34998 ft 528 kts 66°
2026-05-01 12:41 39.49478 -57.28053 35002 ft 527 kts 66°
2026-05-01 12:41 39.52226 -57.19336 35005 ft 526 kts 66°
2026-05-01 12:42 39.54979 -57.10575 35009 ft 525 kts 66°
2026-05-01 12:42 39.57719 -57.01827 35013 ft 523 kts 66°
2026-05-01 12:43 39.60447 -56.93091 35017 ft 522 kts 67°
2026-05-01 12:43 39.63163 -56.84363 35019 ft 521 kts 67°
2026-05-01 12:44 39.65865 -56.75654 35025 ft 520 kts 67°
2026-05-01 12:45 39.71242 -56.58239 35031 ft 519 kts 67°
2026-05-01 12:45 39.73921 -56.49520 35037 ft 520 kts 67°
2026-05-01 12:46 39.76594 -56.40794 35038 ft 520 kts 67°
2026-05-01 12:46 39.79264 -56.32048 35047 ft 520 kts 67°
2026-05-01 12:47 39.81925 -56.23304 35050 ft 520 kts 67°
2026-05-01 12:47 39.84578 -56.14557 35049 ft 520 kts 67°
2026-05-01 12:48 39.87229 -56.05788 35053 ft 520 kts 67°
2026-05-01 12:48 39.89872 -55.97017 35058 ft 521 kts 67°
2026-05-01 12:49 39.92514 -55.88223 35056 ft 521 kts 67°
2026-05-01 12:49 39.95148 -55.79425 35058 ft 521 kts 67°
2026-05-01 12:50 39.97774 -55.70624 35062 ft 521 kts 67°
2026-05-01 12:50 40.00374 -55.61883 35062 ft 521 kts 67°
2026-05-01 12:51 40.02987 -55.53069 35068 ft 521 kts 67°
2026-05-01 12:52 40.06893 -55.39837 35069 ft 521 kts 67°
2026-05-01 12:52 40.10784 -55.26589 35072 ft 521 kts 67°
2026-05-01 12:53 40.14656 -55.13342 35075 ft 520 kts 67°
2026-05-01 12:54 40.17224 -55.04517 35078 ft 519 kts 67°
2026-05-01 12:54 40.21060 -54.91282 35080 ft 518 kts 67°
2026-05-01 12:55 40.24873 -54.78056 35082 ft 517 kts 67°
2026-05-01 12:56 40.27402 -54.69248 35086 ft 516 kts 67°
2026-05-01 12:56 40.29919 -54.60453 35089 ft 516 kts 67°
2026-05-01 12:57 40.32431 -54.51645 35092 ft 516 kts 67°
2026-05-01 12:57 40.36184 -54.38427 35091 ft 516 kts 67°
2026-05-01 12:58 40.38676 -54.29614 35093 ft 516 kts 67°
2026-05-01 12:59 40.42402 -54.16378 35097 ft 515 kts 67°
2026-05-01 12:59 40.46114 -54.03129 35092 ft 515 kts 67°
2026-05-01 13:00 40.49804 -53.89886 35103 ft 515 kts 67°
2026-05-01 13:01 40.53480 -53.76626 35106 ft 515 kts 67°
2026-05-01 13:02 40.57136 -53.63365 35112 ft 514 kts 67°
2026-05-01 13:07 40.83401 -52.66001 35132 ft 511 kts 66°
2026-05-01 13:08 40.85742 -52.57137 35132 ft 511 kts 67°
2026-05-01 13:08 40.88075 -52.48267 35130 ft 511 kts 67°
2026-05-01 13:09 40.90400 -52.39399 35141 ft 511 kts 67°
2026-05-01 13:09 40.92718 -52.30520 35140 ft 511 kts 68°
2026-05-01 13:10 40.95030 -52.21636 35136 ft 511 kts 68°
2026-05-01 13:10 40.97337 -52.12739 35137 ft 511 kts 68°
2026-05-01 13:11 40.99619 -52.03906 35139 ft 510 kts 69°
2026-05-01 13:11 41.01904 -51.95028 35138 ft 509 kts 69°
2026-05-01 13:12 41.04195 -51.86097 35143 ft 508 kts 69°
2026-05-01 13:12 41.06445 -51.77287 35139 ft 508 kts 69°
2026-05-01 13:13 41.08701 -51.68425 35142 ft 507 kts 69°
2026-05-01 13:13 41.10946 -51.59574 35145 ft 506 kts 70°
2026-05-01 13:14 41.13000 -51.51446 35146 ft 506 kts 70°
2026-05-01 13:14 41.15229 -51.42594 35147 ft 506 kts 70°
2026-05-01 13:15 41.17451 -51.33738 35147 ft 506 kts 70°
2026-05-01 13:15 41.19667 -51.24871 35147 ft 506 kts 70°
2026-05-01 13:16 41.21875 -51.16005 35148 ft 506 kts 70°
2026-05-01 13:16 41.24079 -51.07119 35144 ft 507 kts 70°
2026-05-01 13:17 41.26262 -50.98287 35144 ft 507 kts 70°